Location: Oberwangen
(47.4286°N, 8.9679°E)
Time: 23:00:16
(UTC+00:00)

ATLAS 3B R/B - Pass Details

Date: 20 June 2021
Orbit: 1003 x 1191 km, 63.8° (Epoch: 21 July)

Event Time Altitude Azimuth Distance (km) Brightness Sun altitude
Rises 21:48:25 0° 234° (SW) 3,727 5.4 -15.8°
Reaches altitude 10° 21:51:03 10° 239° (WSW) 2,790 4.8 -16.0°
Maximum altitude 21:57:28 56° 317° (NW) 1,217 3.3 -16.4°
Drops below altitude 10° 22:04:11 10° 35° (NE) 2,902 5.4 -16.8°
Sets 22:06:57 0° 40° (NE) 3,888 6.1 -16.9°
